Location: UFOWorks Observatory
(42.1050°N, 72.2350°W)
Time: 05:28:33
(UTC-05:00)

ISS - Visible Passes

Search period start: 18 November 2017 00:00
Search period end: 28 November 2017 00:00
Orbit: 401 x 407 km, 51.6° (Epoch: 18 November)

Date Brightness Start Highest point End Pass type
(mag) Time Alt. Az. Time Alt. Az. Time Alt. Az.
18 Nov -0.8 04:09:27 15° ESE 04:09:27 15° ESE 04:10:08 10° ESE visible
18 Nov -1.7 05:42:08 12° WSW 05:42:57 13° SW 05:44:29 10° SSW visible
19 Nov -1.6 04:52:26 17° S 04:52:26 17° S 04:53:33 10° S visible
25 Nov -1.5 17:51:42 10° SSE 17:52:45 13° SSE 17:52:45 13° SSE visible
26 Nov -1.7 18:34:04 10° SW 18:35:33 24° SW 18:35:33 24° SW visible
27 Nov -2.9 17:42:02 10° SSW 17:45:01 33° SE 17:45:34 30° ESE visible
